Location: Bílinka
(49.3579°N, 14.3767°E)
Time: 00:42:26
(UTC+00:00)

FENGYUN 1C DEB - Pass Details

Date: 28 February 2024
Orbit: 849 x 891 km, 98.8° (Epoch: 24 April)

Event Time Altitude Azimuth Distance (km) Brightness Sun altitude
Rises 18:21:32 0° 178° (S) 3,407 ? -16.8°
Reaches altitude 10° 18:23:57 10° 183° (S) 2,479 ? -17.2°
Maximum altitude 18:29:19 53° 260° (W) 1,045 ? -18.1°
Drops below altitude 10° 18:34:48 10° 337° (NNW) 2,519 ? -19.0°
Sets 18:37:16 0° 342° (NNW) 3,468 ? -19.3°
